User: anonymous   Login
Location: Colonia Mina de C?rbuni
(46.1667°N, 22.7167°E)
Time: 23:53:09
(UTC+00:00)
Language:

Tiros 1 - Orbit

View from above orbital plane
View from above orbital plane
View from above satellite
View from above satellite

Ground track
Ground track

The orbit data is extracted from the following two-line orbital elements,

1 00029U 60002B   24107.47645634  .00001588  00000-0  25639-3 0  9992
2 00029  48.3779 181.0000 0022653 103.2885 257.0555 14.76178385425040
Epoch (UTC): 16 April 2024 11:26:05
Eccentricity: 0.0022653
inclination: 48.3779°
perigee height: 625 km
apogee height: 657 km
right ascension of ascending node: 181.0000°
argument of perigee: 103.2885°
revolutions per day: 14.76178385
mean anomaly at epoch: 257.0555°
orbit number at epoch: 42504

The dashed part of the orbit path shows where the satellite is in the earth's shadow,  

DLR